Time,TemperatureF,DewpointF,PressureIn,WindDirection,WindDirectionDegrees,WindSpeedMPH,WindSpeedGustMPH,Humidity,HourlyPrecipIn,Conditions,Clouds,dailyrainin,SolarRadiationWatts/m^2,SoftwareType,DateUTC
2013-07-18 00:00:00,77.9,66.9,30.09,South,174,2.0,6.0,69,0.00,,---,0.00,0.00,VWS V14.01,2013-07-18 05:00:00,
2013-07-18 00:01:00,77.9,66.9,30.08,South,174,4.0,4.0,69,0.00,,---,0.00,0.00,VWS V14.01,2013-07-18 05:01:00,
2013-07-18 00:06:00,77.7,67.1,30.08,South,174,4.0,6.0,70,0.00,,---,0.00,0.00,VWS V14.01,2013-07-18 05:06:00,
2013-07-18 00:12:00,77.6,67.5,30.08,South,174,4.0,7.0,71,0.00,,---,0.00,0.00,VWS V14.01,2013-07-18 05:12:00,
2013-07-18 00:17:00,77.4,67.3,30.08,South,174,4.0,7.0,71,0.00,,---,0.00,0.00,VWS V14.01,2013-07-18 05:17:00,
2013-07-18 00:22:00,77.2,67.5,30.08,South,174,5.0,7.0,72,0.00,,---,0.00,0.00,VWS V14.01,2013-07-18 05:22:00,
2013-07-18 00:27:00,77.0,67.7,30.09,South,174,4.0,7.0,73,0.00,,---,0.00,0.00,VWS V14.01,2013-07-18 05:27:00,
2013-07-18 00:30:00,77.0,67.7,30.09,South,174,0.0,7.0,73,0.00,,---,0.00,0.00,VWS V14.01,2013-07-18 05:30:00,
2013-07-18 00:32:00,76.8,67.5,30.09,South,174,5.0,5.0,73,0.00,,---,0.00,0.00,VWS V14.01,2013-07-18 05:32:00,
2013-07-18 00:37:00,76.8,67.9,30.09,South,174,5.0,6.0,74,0.00,,---,0.00,0.00,VWS V14.01,2013-07-18 05:37:00,
2013-07-18 00:42:00,76.7,68.2,30.09,South,174,2.0,6.0,75,0.00,,---,0.00,0.00,VWS V14.01,2013-07-18 05:42:00,
2013-07-18 00:47:00,76.5,68.0,30.09,South,174,4.0,6.0,75,0.00,,---,0.00,0.00,VWS V14.01,2013-07-18 05:47:00,
2013-07-18 00:52:00,76.3,67.8,30.09,South,174,4.0,6.0,75,0.00,,---,0.00,0.00,VWS V14.01,2013-07-18 05:52:00,
2013-07-18 00:57:00,76.3,68.2,30.09,South,174,2.0,6.0,76,0.00,,---,0.00,0.00,VWS V14.01,2013-07-18 05:57:00,
2013-07-18 01:00:00,76.1,68.0,30.09,South,174,4.0,6.0,76,0.00,,---,0.00,0.00,VWS V14.01,2013-07-18 06:00:00,
2013-07-18 01:02:00,76.1,68.0,30.09,South,174,1.0,6.0,76,0.00,,---,0.00,0.00,VWS V14.01,2013-07-18 06:02:00,
2013-07-18 01:07:00,76.1,68.0,30.09,South,174,2.0,7.0,76,0.00,,---,0.00,0.00,VWS V14.01,2013-07-18 06:07:00,
2013-07-18 01:12:00,76.1,68.0,30.09,South,174,4.0,7.0,76,0.00,,---,0.00,0.00,VWS V14.01,2013-07-18 06:12:00,
2013-07-18 01:17:00,76.1,68.0,30.09,South,175,2.0,7.0,76,0.00,,---,0.00,0.00,VWS V14.01,2013-07-18 06:17:00,
2013-07-18 01:22:00,76.3,68.2,30.09,SSW,197,5.0,7.0,76,0.00,,---,0.00,0.00,VWS V14.01,2013-07-18 06:22:00,
2013-07-18 01:27:00,76.3,68.2,30.09,South,184,3.0,7.0,76,0.00,,---,0.00,0.00,VWS V14.01,2013-07-18 06:27:00,
2013-07-18 01:30:00,76.3,68.2,30.09,SSW,209,6.0,7.0,76,0.00,,---,0.00,0.00,VWS V14.01,2013-07-18 06:30:00,
2013-07-18 01:32:00,76.3,68.2,30.09,SSW,207,4.0,6.0,76,0.00,,---,0.00,0.00,VWS V14.01,2013-07-18 06:32:00,
2013-07-18 01:37:00,76.3,68.2,30.09,South,188,4.0,7.0,76,0.00,,---,0.00,0.00,VWS V14.01,2013-07-18 06:37:00,
2013-07-18 01:42:00,76.3,68.2,30.09,South,191,3.0,9.0,76,0.00,,---,0.00,0.00,VWS V14.01,2013-07-18 06:42:00,
2013-07-18 01:47:00,76.1,67.2,30.09,South,185,0.0,9.0,74,0.00,,---,0.00,0.00,VWS V14.01,2013-07-18 06:47:00,
2013-07-18 01:52:00,76.1,68.4,30.09,South,178,5.0,9.0,77,0.00,,---,0.00,0.00,VWS V14.01,2013-07-18 06:52:00,
2013-07-18 01:57:00,76.1,68.4,30.09,SSW,210,4.0,9.0,77,0.00,,---,0.00,0.00,VWS V14.01,2013-07-18 06:57:00,
2013-07-18 02:00:00,76.0,68.3,30.09,SSW,200,3.0,9.0,77,0.00,,---,0.00,0.00,VWS V14.01,2013-07-18 07:00:00,
2013-07-18 02:02:00,76.0,68.3,30.09,South,191,4.0,6.0,77,0.00,,---,0.00,0.00,VWS V14.01,2013-07-18 07:02:00,
2013-07-18 02:07:00,75.8,68.1,30.09,South,181,6.0,8.0,77,0.00,,---,0.00,0.00,VWS V14.01,2013-07-18 07:07:00,
2013-07-18 02:12:00,75.8,68.1,30.09,South,185,4.0,8.0,77,0.00,,---,0.00,0.00,VWS V14.01,2013-07-18 07:12:00,
2013-07-18 02:17:00,75.6,68.3,30.08,South,184,2.0,8.0,78,0.00,,---,0.00,0.00,VWS V14.01,2013-07-18 07:17:00,
2013-07-18 02:22:00,75.6,68.3,30.08,SSW,209,2.0,8.0,78,0.00,,---,0.00,0.00,VWS V14.01,2013-07-18 07:22:00,
2013-07-18 02:27:00,75.4,68.1,30.09,SSW,209,1.0,8.0,78,0.00,,---,0.00,0.00,VWS V14.01,2013-07-18 07:27:00,
2013-07-18 02:30:00,75.4,68.1,30.09,SSW,209,2.0,8.0,78,0.00,,---,0.00,0.00,VWS V14.01,2013-07-18 07:30:00,
2013-07-18 02:32:00,75.4,68.1,30.09,SSW,209,0.0,4.0,78,0.00,,---,0.00,0.00,VWS V14.01,2013-07-18 07:32:00,
2013-07-18 02:37:00,75.4,68.1,30.09,SSW,209,0.0,4.0,78,0.00,,---,0.00,0.00,VWS V14.01,2013-07-18 07:37:00,
2013-07-18 02:42:00,75.3,68.0,30.09,SSW,209,2.0,4.0,78,0.00,,---,0.00,0.00,VWS V14.01,2013-07-18 07:42:00,
2013-07-18 02:47:00,75.1,68.2,30.08,SSW,209,2.0,4.0,79,0.00,,---,0.00,0.00,VWS V14.01,2013-07-18 07:47:00,
2013-07-18 02:52:00,74.7,67.8,30.08,SSW,209,2.0,4.0,79,0.00,,---,0.00,0.00,VWS V14.01,2013-07-18 07:52:00,
2013-07-18 02:57:00,74.6,68.0,30.08,SSW,209,1.0,4.0,80,0.00,,---,0.00,0.00,VWS V14.01,2013-07-18 07:57:00,
2013-07-18 03:00:00,74.6,68.0,30.08,SSW,209,1.0,4.0,80,0.00,,---,0.00,0.00,VWS V14.01,2013-07-18 08:00:00,
2013-07-18 03:02:00,74.6,68.0,30.08,SSW,209,3.0,3.0,80,0.00,,---,0.00,0.00,VWS V14.01,2013-07-18 08:02:00,
2013-07-18 03:07:00,74.4,67.8,30.08,SSW,206,3.0,5.0,80,0.00,,---,0.00,0.00,VWS V14.01,2013-07-18 08:07:00,
2013-07-18 03:12:00,74.4,67.8,30.08,South,172,6.0,7.0,80,0.00,,---,0.00,0.00,VWS V14.01,2013-07-18 08:12:00,
2013-07-18 03:17:00,74.2,68.0,30.08,South,172,5.0,7.0,81,0.00,,---,0.00,0.00,VWS V14.01,2013-07-18 08:17:00,
2013-07-18 03:22:00,74.2,68.0,30.08,South,172,2.0,7.0,81,0.00,,---,0.00,0.00,VWS V14.01,2013-07-18 08:22:00,
2013-07-18 03:27:00,74.0,67.8,30.08,South,181,4.0,7.0,81,0.00,,---,0.00,0.00,VWS V14.01,2013-07-18 08:27:00,
2013-07-18 03:30:00,74.0,67.8,30.08,South,180,4.0,7.0,81,0.00,,---,0.00,0.00,VWS V14.01,2013-07-18 08:30:00,
2013-07-18 03:32:00,74.0,67.8,30.08,South,180,2.0,5.0,81,0.00,,---,0.00,0.00,VWS V14.01,2013-07-18 08:32:00,
2013-07-18 03:37:00,73.9,68.1,30.08,SSE,165,4.0,6.0,82,0.00,,---,0.00,0.00,VWS V14.01,2013-07-18 08:37:00,
2013-07-18 03:42:00,73.9,68.1,30.08,South,169,5.0,6.0,82,0.00,,---,0.00,0.00,VWS V14.01,2013-07-18 08:42:00,
2013-07-18 03:47:00,73.9,68.1,30.08,South,169,6.0,6.0,82,0.00,,---,0.00,0.00,VWS V14.01,2013-07-18 08:47:00,
2013-07-18 03:52:00,73.7,67.9,30.08,South,169,5.0,7.0,82,0.00,,---,0.00,0.00,VWS V14.01,2013-07-18 08:52:00,
2013-07-18 03:57:00,73.7,67.9,30.08,South,169,4.0,7.0,82,0.00,,---,0.00,0.00,VWS V14.01,2013-07-18 08:57:00,
2013-07-18 04:00:00,73.5,67.7,30.08,South,169,4.0,7.0,82,0.00,,---,0.00,0.00,VWS V14.01,2013-07-18 09:00:00,
2013-07-18 04:02:00,73.5,67.7,30.08,South,169,4.0,6.0,82,0.00,,---,0.00,0.00,VWS V14.01,2013-07-18 09:02:00,
2013-07-18 04:07:00,73.5,67.7,30.08,South,169,2.0,6.0,82,0.00,,---,0.00,0.00,VWS V14.01,2013-07-18 09:07:00,
2013-07-18 04:12:00,73.3,67.8,30.08,South,169,4.0,6.0,83,0.00,,---,0.00,0.00,VWS V14.01,2013-07-18 09:12:00,
2013-07-18 04:17:00,73.2,67.7,30.08,South,169,2.0,6.0,83,0.00,,---,0.00,0.00,VWS V14.01,2013-07-18 09:17:00,
2013-07-18 04:22:00,73.2,67.7,30.08,South,169,2.0,6.0,83,0.00,,---,0.00,0.00,VWS V14.01,2013-07-18 09:22:00,
2013-07-18 04:27:00,73.2,67.7,30.08,South,169,4.0,6.0,83,0.00,,---,0.00,0.00,VWS V14.01,2013-07-18 09:27:00,
2013-07-18 04:30:00,73.0,67.5,30.08,South,169,2.0,6.0,83,0.00,,---,0.00,0.00,VWS V14.01,2013-07-18 09:30:00,
2013-07-18 04:32:00,73.0,67.5,30.08,South,169,2.0,6.0,83,0.00,,---,0.00,0.00,VWS V14.01,2013-07-18 09:32:00,
2013-07-18 04:37:00,72.8,67.7,30.08,South,169,5.0,6.0,84,0.00,,---,0.00,0.00,VWS V14.01,2013-07-18 09:37:00,
2013-07-18 04:42:00,72.8,67.7,30.08,South,169,5.0,6.0,84,0.00,,---,0.00,0.00,VWS V14.01,2013-07-18 09:42:00,
2013-07-18 04:47:00,72.7,67.6,30.08,South,169,4.0,7.0,84,0.00,,---,0.00,0.00,VWS V14.01,2013-07-18 09:47:00,
2013-07-18 04:52:00,72.7,67.6,30.08,South,169,6.0,7.0,84,0.00,,---,0.00,0.00,VWS V14.01,2013-07-18 09:52:00,
2013-07-18 04:57:00,72.5,67.4,30.08,South,170,4.0,7.0,84,0.00,,---,0.00,0.00,VWS V14.01,2013-07-18 09:57:00,
2013-07-18 05:00:00,72.5,67.4,30.08,South,170,5.0,7.0,84,0.00,,---,0.00,0.00,VWS V14.01,2013-07-18 10:00:00,
2013-07-18 05:02:00,72.5,67.4,30.08,South,170,4.0,7.0,84,0.00,,---,0.00,0.00,VWS V14.01,2013-07-18 10:02:00,
2013-07-18 05:07:00,72.3,67.5,30.08,South,170,5.0,7.0,85,0.00,,---,0.00,0.00,VWS V14.01,2013-07-18 10:07:00,
2013-07-18 05:12:00,72.3,67.5,30.08,South,170,6.0,7.0,85,0.00,,---,0.00,0.00,VWS V14.01,2013-07-18 10:12:00,
2013-07-18 05:17:00,72.1,67.3,30.08,South,170,5.0,7.0,85,0.00,,---,0.00,0.00,VWS V14.01,2013-07-18 10:17:00,
2013-07-18 05:22:00,72.1,67.3,30.08,South,171,2.0,8.0,85,0.00,,---,0.00,0.00,VWS V14.01,2013-07-18 10:22:00,
2013-07-18 05:27:00,72.1,67.3,30.08,South,169,6.0,8.0,85,0.00,,---,0.00,0.00,VWS V14.01,2013-07-18 10:27:00,
2013-07-18 05:30:00,72.1,67.3,30.08,SSE,165,5.0,9.0,85,0.00,,---,0.00,0.00,VWS V14.01,2013-07-18 10:30:00,
2013-07-18 05:32:00,72.0,67.2,30.08,South,173,4.0,7.0,85,0.00,,---,0.00,0.00,VWS V14.01,2013-07-18 10:32:00,
2013-07-18 05:37:00,72.0,67.2,30.08,South,178,5.0,9.0,85,0.00,,---,0.00,0.00,VWS V14.01,2013-07-18 10:37:00,
2013-07-18 05:42:00,71.8,67.1,30.08,SSE,166,6.0,9.0,85,0.00,,---,0.00,0.00,VWS V14.01,2013-07-18 10:42:00,
2013-07-18 05:47:00,71.8,67.1,30.08,South,175,4.0,9.0,85,0.00,,---,0.00,0.00,VWS V14.01,2013-07-18 10:47:00,
2013-07-18 05:52:00,71.8,67.1,30.07,South,175,4.0,9.0,85,0.00,,---,0.00,0.00,VWS V14.01,2013-07-18 10:52:00,
2013-07-18 05:57:00,71.8,67.1,30.07,South,175,1.0,9.0,85,0.00,,---,0.00,0.00,VWS V14.01,2013-07-18 10:57:00,
2013-07-18 06:00:00,71.8,67.1,30.07,South,176,4.0,9.0,85,0.00,,---,0.00,0.00,VWS V14.01,2013-07-18 11:00:00,
2013-07-18 06:02:00,71.8,67.1,30.07,South,176,1.0,4.0,85,0.00,,---,0.00,0.00,VWS V14.01,2013-07-18 11:02:00,
2013-07-18 06:07:00,71.8,67.1,30.07,South,176,0.0,4.0,85,0.00,,---,0.00,0.00,VWS V14.01,2013-07-18 11:07:00,
2013-07-18 06:12:00,71.8,67.1,30.07,South,188,2.0,6.0,85,0.00,,---,0.00,0.00,VWS V14.01,2013-07-18 11:12:00,
2013-07-18 06:17:00,72.0,66.9,30.07,SSW,196,3.0,6.0,84,0.00,,---,0.00,0.00,VWS V14.01,2013-07-18 11:17:00,
2013-07-18 06:22:00,72.0,66.9,30.07,SSW,196,1.0,6.0,84,0.00,,---,0.00,5.00,VWS V14.01,2013-07-18 11:22:00,
2013-07-18 06:27:00,72.1,67.0,30.07,South,180,5.0,7.0,84,0.00,,---,0.00,11.00,VWS V14.01,2013-07-18 11:27:00,
2013-07-18 06:30:00,72.1,67.0,30.07,South,190,3.0,7.0,84,0.00,,---,0.00,12.00,VWS V14.01,2013-07-18 11:30:00,
2013-07-18 06:32:00,72.1,67.0,30.07,South,190,1.0,5.0,84,0.00,,---,0.00,14.00,VWS V14.01,2013-07-18 11:32:00,
2013-07-18 06:37:00,72.1,66.7,30.07,South,190,4.0,7.0,83,0.00,,---,0.00,21.00,VWS V14.01,2013-07-18 11:37:00,
2013-07-18 06:42:00,72.1,66.7,30.07,South,188,6.0,7.0,83,0.00,,---,0.00,28.00,VWS V14.01,2013-07-18 11:42:00,
2013-07-18 06:47:00,72.3,66.8,30.07,South,182,1.0,7.0,83,0.00,,---,0.00,35.00,VWS V14.01,2013-07-18 11:47:00,
2013-07-18 06:52:00,72.5,66.7,30.08,SSW,195,5.0,7.0,82,0.00,,---,0.00,46.00,VWS V14.01,2013-07-18 11:52:00,
2013-07-18 06:57:00,72.7,66.9,30.07,South,189,0.0,7.0,82,0.00,,---,0.00,54.00,VWS V14.01,2013-07-18 11:57:00,
2013-07-18 07:00:00,72.7,66.9,30.07,SSW,198,4.0,7.0,82,0.00,,---,0.00,58.00,VWS V14.01,2013-07-18 12:00:00,
2013-07-18 07:03:00,72.8,67.0,30.07,SSW,198,3.0,6.0,82,0.00,,---,0.00,67.00,VWS V14.01,2013-07-18 12:03:00,
2013-07-18 07:08:00,72.8,66.6,30.07,SSW,192,4.0,6.0,81,0.00,,---,0.00,79.00,VWS V14.01,2013-07-18 12:08:00,
2013-07-18 07:13:00,73.0,66.8,30.07,SSW,192,2.0,6.0,81,0.00,,---,0.00,93.00,VWS V14.01,2013-07-18 12:13:00,
2013-07-18 07:18:00,73.3,66.8,30.07,SSW,192,1.0,6.0,80,0.00,,---,0.00,109.00,VWS V14.01,2013-07-18 12:18:00,
2013-07-18 07:23:00,73.7,66.8,30.07,SSW,192,0.0,6.0,79,0.00,,---,0.00,125.00,VWS V14.01,2013-07-18 12:23:00,
2013-07-18 07:28:00,73.9,67.0,30.07,South,190,2.0,6.0,79,0.00,,---,0.00,144.00,VWS V14.01,2013-07-18 12:28:00,
2013-07-18 07:30:00,73.9,67.0,30.07,South,190,4.0,6.0,79,0.00,,---,0.00,151.00,VWS V14.01,2013-07-18 12:30:00,
2013-07-18 07:33:00,74.0,67.1,30.07,SSE,168,6.0,7.0,79,0.00,,---,0.00,158.00,VWS V14.01,2013-07-18 12:33:00,
2013-07-18 07:38:00,74.2,66.9,30.07,South,182,3.0,7.0,78,0.00,,---,0.00,172.00,VWS V14.01,2013-07-18 12:38:00,
2013-07-18 07:43:00,74.4,67.1,30.07,South,176,4.0,9.0,78,0.00,,---,0.00,188.00,VWS V14.01,2013-07-18 12:43:00,
2013-07-18 07:48:00,74.6,66.9,30.07,South,177,5.0,9.0,77,0.00,,---,0.00,200.00,VWS V14.01,2013-07-18 12:48:00,
2013-07-18 07:53:00,74.7,67.0,30.07,SSW,200,3.0,9.0,77,0.00,,---,0.00,214.00,VWS V14.01,2013-07-18 12:53:00,
2013-07-18 07:58:00,74.6,66.9,30.07,SSW,210,3.0,9.0,77,0.00,,---,0.00,230.00,VWS V14.01,2013-07-18 12:58:00,
2013-07-18 08:00:00,74.6,66.9,30.07,SSW,211,3.0,9.0,77,0.00,,---,0.00,232.00,VWS V14.01,2013-07-18 13:00:00,
2013-07-18 08:03:00,74.7,67.4,30.07,SSW,197,4.0,6.0,78,0.00,,---,0.00,243.00,VWS V14.01,2013-07-18 13:03:00,
2013-07-18 08:08:00,74.9,67.2,30.07,SSE,159,4.0,10.0,77,0.00,,---,0.00,258.00,VWS V14.01,2013-07-18 13:08:00,
2013-07-18 08:13:00,75.3,67.6,30.07,SSW,198,4.0,10.0,77,0.00,,---,0.00,272.00,VWS V14.01,2013-07-18 13:13:00,
2013-07-18 08:18:00,75.6,67.5,30.07,South,190,3.0,10.0,76,0.00,,---,0.00,290.00,VWS V14.01,2013-07-18 13:18:00,
2013-07-18 08:23:00,75.8,67.7,30.07,SSW,196,8.0,12.0,76,0.00,,---,0.00,302.00,VWS V14.01,2013-07-18 13:23:00,
2013-07-18 08:28:00,76.1,68.0,30.07,South,172,2.0,12.0,76,0.00,,---,0.00,315.00,VWS V14.01,2013-07-18 13:28:00,
2013-07-18 08:30:00,76.1,68.0,30.07,SSW,211,2.0,12.0,76,0.00,,---,0.00,322.00,VWS V14.01,2013-07-18 13:30:00,
2013-07-18 08:33:00,76.7,68.2,30.07,SSE,164,6.0,11.0,75,0.00,,---,0.00,330.00,VWS V14.01,2013-07-18 13:33:00,
2013-07-18 08:38:00,77.2,68.3,30.07,SW,232,7.0,11.0,74,0.00,,---,0.00,345.00,VWS V14.01,2013-07-18 13:38:00,
2013-07-18 08:43:00,77.4,68.1,30.07,SW,218,6.0,11.0,73,0.00,,---,0.00,359.00,VWS V14.01,2013-07-18 13:43:00,
2013-07-18 08:48:00,77.4,68.1,30.07,South,188,11.0,14.0,73,0.00,,---,0.00,373.00,VWS V14.01,2013-07-18 13:48:00,
2013-07-18 08:53:00,77.9,68.2,30.07,South,185,3.0,14.0,72,0.00,,---,0.00,387.00,VWS V14.01,2013-07-18 13:53:00,
2013-07-18 08:58:00,78.1,68.3,30.07,SSW,209,0.0,16.0,72,0.00,,---,0.00,403.00,VWS V14.01,2013-07-18 13:58:00,
2013-07-18 09:00:00,78.3,68.1,30.07,SSE,167,8.0,16.0,71,0.00,,---,0.00,404.00,VWS V14.01,2013-07-18 14:00:00,
2013-07-18 09:03:00,78.6,68.0,30.07,SSW,194,12.0,16.0,70,0.00,,---,0.00,410.00,VWS V14.01,2013-07-18 14:03:00,
2013-07-18 09:08:00,78.8,68.2,30.07,SSW,197,9.0,16.0,70,0.00,,---,0.00,429.00,VWS V14.01,2013-07-18 14:08:00,
2013-07-18 09:13:00,79.0,68.0,30.06,SSW,202,7.0,16.0,69,0.00,,---,0.00,443.00,VWS V14.01,2013-07-18 14:13:00,
2013-07-18 09:18:00,79.2,68.2,30.06,SSW,205,12.0,18.0,69,0.00,,---,0.00,457.00,VWS V14.01,2013-07-18 14:18:00,
2013-07-18 09:23:00,79.4,68.3,30.06,SSW,193,9.0,19.0,69,0.00,,---,0.00,471.00,VWS V14.01,2013-07-18 14:23:00,
2013-07-18 09:28:00,79.9,68.8,30.06,SSE,161,2.0,19.0,69,0.00,,---,0.00,482.00,VWS V14.01,2013-07-18 14:28:00,
2013-07-18 09:30:00,80.1,68.6,30.06,SSW,194,7.0,19.0,68,0.00,,---,0.00,489.00,VWS V14.01,2013-07-18 14:30:00,
2013-07-18 09:33:00,80.5,68.1,30.06,SW,215,7.0,13.0,66,0.00,,---,0.00,497.00,VWS V14.01,2013-07-18 14:33:00,
2013-07-18 09:38:00,80.5,68.1,30.06,SSW,210,6.0,15.0,66,0.00,,---,0.00,515.00,VWS V14.01,2013-07-18 14:38:00,
2013-07-18 09:43:00,80.9,68.5,30.06,WSW,240,4.0,15.0,66,0.00,,---,0.00,526.00,VWS V14.01,2013-07-18 14:43:00,
2013-07-18 09:48:00,81.1,68.2,30.06,SSE,153,8.0,19.0,65,0.00,,---,0.00,541.00,VWS V14.01,2013-07-18 14:48:00,
2013-07-18 09:53:00,81.1,68.2,30.05,SSE,163,12.0,21.0,65,0.00,,---,0.00,554.00,VWS V14.01,2013-07-18 14:53:00,
2013-07-18 10:00:00,78.3,68.1,30.07,SSE,167,8.0,16.0,71,0.00,,---,0.00,404.00,VWS V14.01,2013-07-18 15:00:00,
2013-07-18 10:13:00,82.2,67.9,30.05,SSW,211,16.0,16.0,62,0.00,,---,0.00,608.00,VWS V14.01,2013-07-18 15:13:00,
2013-07-18 10:18:00,82.8,68.5,30.05,South,173,9.0,17.0,62,0.00,,---,0.00,631.00,VWS V14.01,2013-07-18 15:18:00,
2013-07-18 10:23:00,83.2,68.4,30.05,South,179,7.0,17.0,61,0.00,,---,0.00,642.00,VWS V14.01,2013-07-18 15:23:00,
2013-07-18 10:28:00,83.6,67.8,30.05,South,188,20.0,20.0,59,0.00,,---,0.00,650.00,VWS V14.01,2013-07-18 15:28:00,
2013-07-18 10:30:00,83.4,67.6,30.05,SSW,199,17.0,20.0,59,0.00,,---,0.00,659.00,VWS V14.01,2013-07-18 15:30:00,
2013-07-18 10:33:00,83.4,68.1,30.05,SSW,203,16.0,18.0,60,0.00,,---,0.00,668.00,VWS V14.01,2013-07-18 15:33:00,
2013-07-18 10:38:00,83.2,67.4,30.05,SSW,213,14.0,19.0,59,0.00,,---,0.00,684.00,VWS V14.01,2013-07-18 15:38:00,
2013-07-18 10:43:00,83.2,67.9,30.04,South,190,4.0,24.0,60,0.00,,---,0.00,694.00,VWS V14.01,2013-07-18 15:43:00,
2013-07-18 10:48:00,83.6,68.3,30.04,SSW,205,4.0,24.0,60,0.00,,---,0.00,721.00,VWS V14.01,2013-07-18 15:48:00,
2013-07-18 10:53:00,84.1,67.2,30.04,SSW,207,12.0,24.0,57,0.00,,---,0.00,779.00,VWS V14.01,2013-07-18 15:53:00,
2013-07-18 10:58:00,84.1,67.7,30.04,South,173,5.0,24.0,58,0.00,,---,0.00,780.00,VWS V14.01,2013-07-18 15:58:00,
2013-07-18 11:00:00,84.3,67.4,30.04,SW,223,12.0,24.0,57,0.00,,---,0.00,789.00,VWS V14.01,2013-07-18 16:00:00,
2013-07-18 11:03:00,84.5,67.6,30.04,SSW,212,10.0,18.0,57,0.00,,---,0.00,803.00,VWS V14.01,2013-07-18 16:03:00,
2013-07-18 11:08:00,84.9,68.0,30.04,South,176,5.0,19.0,57,0.00,,---,0.00,833.00,VWS V14.01,2013-07-18 16:08:00,
2013-07-18 11:13:00,85.7,67.7,30.04,SSW,192,10.0,19.0,55,0.00,,---,0.00,875.00,VWS V14.01,2013-07-18 16:13:00,
2013-07-18 11:18:00,85.9,67.3,30.04,SW,232,10.0,19.0,54,0.00,,---,0.00,863.00,VWS V14.01,2013-07-18 16:18:00,
2013-07-18 11:23:00,85.7,66.6,30.03,SSW,204,4.0,21.0,53,0.00,,---,0.00,227.00,VWS V14.01,2013-07-18 16:23:00,
2013-07-18 11:28:00,84.9,66.9,30.03,SW,219,12.0,23.0,55,0.00,,---,0.00,178.00,VWS V14.01,2013-07-18 16:28:00,
2013-07-18 11:30:00,84.7,66.2,30.03,SSW,201,11.0,23.0,54,0.00,,---,0.00,234.00,VWS V14.01,2013-07-18 16:30:00,
2013-07-18 11:33:00,84.5,66.6,30.03,SW,235,15.0,19.0,55,0.00,,---,0.00,784.00,VWS V14.01,2013-07-18 16:33:00,
2013-07-18 11:38:00,84.9,66.4,30.03,SW,235,9.0,19.0,54,0.00,,---,0.00,192.00,VWS V14.01,2013-07-18 16:38:00,
2013-07-18 11:43:00,84.9,66.9,30.03,South,171,10.0,19.0,55,0.00,,---,0.00,193.00,VWS V14.01,2013-07-18 16:43:00,
2013-07-18 11:48:00,84.9,66.9,30.03,SSW,201,12.0,19.0,55,0.00,,---,0.00,327.00,VWS V14.01,2013-07-18 16:48:00,
2013-07-18 11:53:00,84.7,66.2,30.03,SSW,203,14.0,19.0,54,0.00,,---,0.00,902.00,VWS V14.01,2013-07-18 16:53:00,
2013-07-18 11:58:00,85.3,66.8,30.02,SSW,196,10.0,19.0,54,0.00,,---,0.00,958.00,VWS V14.01,2013-07-18 16:58:00,
2013-07-18 12:00:00,85.5,66.4,30.02,SSW,207,10.0,19.0,53,0.00,,---,0.00,958.00,VWS V14.01,2013-07-18 17:00:00,
2013-07-18 12:03:00,85.9,66.8,30.02,SSW,195,8.0,17.0,53,0.00,,---,0.00,236.00,VWS V14.01,2013-07-18 17:03:00,
2013-07-18 12:08:00,85.7,66.1,30.02,South,191,8.0,19.0,52,0.00,,---,0.00,919.00,VWS V14.01,2013-07-18 17:08:00,
2013-07-18 12:13:00,86.1,66.4,30.02,SSW,213,3.0,19.0,52,0.00,,---,0.00,969.00,VWS V14.01,2013-07-18 17:13:00,
2013-07-18 12:18:00,86.3,66.1,30.02,South,186,19.0,23.0,51,0.00,,---,0.00,241.00,VWS V14.01,2013-07-18 17:18:00,
2013-07-18 12:23:00,85.7,65.5,30.01,SW,217,5.0,23.0,51,0.00,,---,0.00,223.00,VWS V14.01,2013-07-18 17:23:00,
2013-07-18 12:28:00,86.3,66.1,30.01,SW,223,8.0,23.0,51,0.00,,---,0.00,995.00,VWS V14.01,2013-07-18 17:28:00,
2013-07-18 12:30:00,86.5,66.2,30.01,SSW,196,14.0,23.0,51,0.00,,---,0.00,995.00,VWS V14.01,2013-07-18 17:30:00,
2013-07-18 12:33:00,87.0,65.6,30.01,South,179,7.0,21.0,49,0.00,,---,0.00,963.00,VWS V14.01,2013-07-18 17:33:00,
2013-07-18 12:38:00,87.8,65.7,30.01,SSW,211,19.0,21.0,48,0.00,,---,0.00,940.00,VWS V14.01,2013-07-18 17:38:00,
2013-07-18 12:43:00,87.6,66.1,30.01,South,182,5.0,21.0,49,0.00,,---,0.00,962.00,VWS V14.01,2013-07-18 17:43:00,
2013-07-18 12:48:00,87.8,65.1,30.01,SW,222,11.0,23.0,47,0.00,,---,0.00,972.00,VWS V14.01,2013-07-18 17:48:00,
2013-07-18 12:53:00,87.8,65.7,30.00,SSW,194,19.0,23.0,48,0.00,,---,0.00,1000.00,VWS V14.01,2013-07-18 17:53:00,
2013-07-18 12:58:00,87.8,65.7,30.00,South,188,6.0,23.0,48,0.00,,---,0.00,362.00,VWS V14.01,2013-07-18 17:58:00,
2013-07-18 13:00:00,88.0,65.9,30.00,South,184,5.0,23.0,48,0.00,,---,0.00,1004.00,VWS V14.01,2013-07-18 18:00:00,
2013-07-18 13:03:00,88.2,64.8,30.00,SW,232,16.0,21.0,46,0.00,,---,0.00,1016.00,VWS V14.01,2013-07-18 18:03:00,
2013-07-18 13:08:00,88.0,64.7,30.00,SSW,201,13.0,23.0,46,0.00,,---,0.00,1011.00,VWS V14.01,2013-07-18 18:08:00,
2013-07-18 13:13:00,87.8,65.1,30.00,South,179,11.0,23.0,47,0.00,,---,0.00,1004.00,VWS V14.01,2013-07-18 18:13:00,
2013-07-18 13:18:00,88.0,65.3,29.99,SSW,196,5.0,23.0,47,0.00,,---,0.00,192.00,VWS V14.01,2013-07-18 18:18:00,
2013-07-18 13:23:00,88.0,65.9,29.99,SE,133,13.0,23.0,48,0.00,,---,0.00,1042.00,VWS V14.01,2013-07-18 18:23:00,
2013-07-18 13:28:00,88.2,66.1,29.99,SSE,161,8.0,23.0,48,0.00,,---,0.00,211.00,VWS V14.01,2013-07-18 18:28:00,
2013-07-18 13:30:00,88.4,65.6,29.99,South,190,14.0,23.0,47,0.00,,---,0.00,190.00,VWS V14.01,2013-07-18 18:30:00,
2013-07-18 13:33:00,88.2,65.4,29.99,SSW,198,5.0,25.0,47,0.00,,---,0.00,977.00,VWS V14.01,2013-07-18 18:33:00,
2013-07-18 13:38:00,88.4,64.4,29.99,South,188,13.0,25.0,45,0.00,,---,0.00,221.00,VWS V14.01,2013-07-18 18:38:00,
2013-07-18 13:44:00,88.2,64.8,29.98,SW,215,14.0,25.0,46,0.00,,---,0.00,230.00,VWS V14.01,2013-07-18 18:44:00,
2013-07-18 13:49:00,89.0,64.9,29.98,SSW,197,10.0,29.0,45,0.00,,---,0.00,926.00,VWS V14.01,2013-07-18 18:49:00,
2013-07-18 13:54:00,89.0,64.9,29.98,SSW,202,14.0,29.0,45,0.00,,---,0.00,192.00,VWS V14.01,2013-07-18 18:54:00,
2013-07-18 13:59:00,88.8,64.7,29.98,South,171,16.0,29.0,45,0.00,,---,0.00,246.00,VWS V14.01,2013-07-18 18:59:00,
2013-07-18 14:00:00,88.8,64.7,29.98,South,180,5.0,29.0,45,0.00,,---,0.00,234.00,VWS V14.01,2013-07-18 19:00:00,
2013-07-18 14:04:00,89.0,63.6,29.98,SSW,207,12.0,19.0,43,0.00,,---,0.00,218.00,VWS V14.01,2013-07-18 19:04:00,
2013-07-18 14:09:00,89.3,64.6,29.98,SW,222,10.0,20.0,44,0.00,,---,0.00,227.00,VWS V14.01,2013-07-18 19:09:00,
2013-07-18 14:14:00,88.8,64.1,29.98,SSE,167,12.0,20.0,44,0.00,,---,0.00,195.00,VWS V14.01,2013-07-18 19:14:00,
2013-07-18 14:19:00,89.0,64.9,29.97,South,175,7.0,20.0,45,0.00,,---,0.00,202.00,VWS V14.01,2013-07-18 19:19:00,
2013-07-18 14:24:00,89.3,64.6,29.97,South,187,8.0,22.0,44,0.00,,---,0.00,146.00,VWS V14.01,2013-07-18 19:24:00,
2013-07-18 14:29:00,89.3,63.9,29.97,South,172,8.0,24.0,43,0.00,,---,0.00,178.00,VWS V14.01,2013-07-18 19:29:00,
2013-07-18 14:30:00,89.3,63.9,29.97,SSW,207,8.0,24.0,43,0.00,,---,0.00,148.00,VWS V14.01,2013-07-18 19:30:00,
2013-07-18 14:34:00,89.9,63.8,29.97,South,188,7.0,22.0,42,0.00,,---,0.00,139.00,VWS V14.01,2013-07-18 19:34:00,
2013-07-18 14:39:00,89.7,64.9,29.96,South,169,8.0,22.0,44,0.00,,---,0.00,128.00,VWS V14.01,2013-07-18 19:39:00,
2013-07-18 14:44:00,89.7,62.9,29.96,ESE,119,11.0,22.0,41,0.00,,---,0.00,197.00,VWS V14.01,2013-07-18 19:44:00,
2013-07-18 14:49:00,89.5,63.4,29.96,SSE,157,14.0,22.0,42,0.00,,---,0.00,174.00,VWS V14.01,2013-07-18 19:49:00,
2013-07-18 14:54:00,89.5,64.1,29.96,SSW,205,13.0,23.0,43,0.00,,---,0.00,160.00,VWS V14.01,2013-07-18 19:54:00,
2013-07-18 14:59:00,89.3,63.9,29.96,SSW,195,12.0,24.0,43,0.00,,---,0.00,162.00,VWS V14.01,2013-07-18 19:59:00,
2013-07-18 15:00:00,89.3,63.9,29.96,SW,214,8.0,24.0,43,0.00,,---,0.00,162.00,VWS V14.01,2013-07-18 20:00:00,
2013-07-18 15:04:00,89.5,64.7,29.95,South,189,11.0,22.0,44,0.00,,---,0.00,193.00,VWS V14.01,2013-07-18 20:04:00,
2013-07-18 15:09:00,89.9,63.1,29.95,SSE,159,14.0,22.0,41,0.00,,---,0.00,120.00,VWS V14.01,2013-07-18 20:09:00,
2013-07-18 15:14:00,90.1,63.2,29.95,South,174,16.0,22.0,41,0.00,,---,0.00,882.00,VWS V14.01,2013-07-18 20:14:00,
2013-07-18 15:19:00,90.5,63.6,29.95,South,190,8.0,22.0,41,0.00,,---,0.00,236.00,VWS V14.01,2013-07-18 20:19:00,
2013-07-18 15:24:00,89.9,63.8,29.94,SSE,165,16.0,24.0,42,0.00,,---,0.00,902.00,VWS V14.01,2013-07-18 20:24:00,
2013-07-18 15:29:00,90.1,63.2,29.94,South,173,17.0,24.0,41,0.00,,---,0.00,898.00,VWS V14.01,2013-07-18 20:29:00,
2013-07-18 15:30:00,90.1,63.2,29.94,South,177,13.0,24.0,41,0.00,,---,0.00,900.00,VWS V14.01,2013-07-18 20:30:00,
2013-07-18 15:34:00,90.7,63.1,29.94,SSW,209,21.0,21.0,40,0.00,,---,0.00,165.00,VWS V14.01,2013-07-18 20:34:00,
2013-07-18 15:39:00,90.3,63.4,29.94,SSW,195,15.0,25.0,41,0.00,,---,0.00,146.00,VWS V14.01,2013-07-18 20:39:00,
2013-07-18 15:44:00,90.1,63.2,29.94,SSE,162,22.0,25.0,41,0.00,,---,0.00,856.00,VWS V14.01,2013-07-18 20:44:00,
2013-07-18 15:49:00,90.3,62.7,29.94,SSE,168,11.0,25.0,40,0.00,,---,0.00,830.00,VWS V14.01,2013-07-18 20:49:00,
2013-07-18 15:54:00,90.5,62.2,29.94,SW,236,14.0,25.0,39,0.00,,---,0.00,227.00,VWS V14.01,2013-07-18 20:54:00,
2013-07-18 15:59:00,90.7,62.4,29.94,SSE,161,11.0,25.0,39,0.00,,---,0.00,842.00,VWS V14.01,2013-07-18 20:59:00,
2013-07-18 16:00:00,90.7,62.4,29.94,South,191,16.0,25.0,39,0.00,,---,0.00,842.00,VWS V14.01,2013-07-18 21:00:00,
2013-07-18 16:04:00,91.4,62.2,29.93,South,188,14.0,27.0,38,0.00,,---,0.00,795.00,VWS V14.01,2013-07-18 21:04:00,
2013-07-18 16:09:00,91.4,63.0,29.93,South,171,2.0,27.0,39,0.00,,---,0.00,780.00,VWS V14.01,2013-07-18 21:09:00,
2013-07-18 16:14:00,91.6,62.4,29.93,South,175,25.0,27.0,38,0.00,,---,0.00,784.00,VWS V14.01,2013-07-18 21:14:00,
2013-07-18 16:19:00,91.4,62.2,29.93,South,182,17.0,27.0,38,0.00,,---,0.00,784.00,VWS V14.01,2013-07-18 21:19:00,
2013-07-18 16:24:00,91.4,62.2,29.93,SSE,167,13.0,27.0,38,0.00,,---,0.00,747.00,VWS V14.01,2013-07-18 21:24:00,
2013-07-18 16:29:00,91.0,61.9,29.92,South,182,5.0,27.0,38,0.00,,---,0.00,768.00,VWS V14.01,2013-07-18 21:29:00,
2013-07-18 16:30:00,91.0,61.9,29.92,South,182,5.0,27.0,38,0.00,,---,0.00,768.00,VWS V14.01,2013-07-18 21:30:00,
2013-07-18 16:34:00,91.6,62.4,29.92,SW,215,18.0,18.0,38,0.00,,---,0.00,735.00,VWS V14.01,2013-07-18 21:34:00,
2013-07-18 16:40:00,92.3,62.3,29.92,SSW,200,8.0,18.0,37,0.00,,---,0.00,705.00,VWS V14.01,2013-07-18 21:40:00,
2013-07-18 16:44:00,92.1,62.1,29.92,South,186,14.0,23.0,37,0.00,,---,0.00,666.00,VWS V14.01,2013-07-18 21:44:00,
2013-07-18 16:50:00,92.1,62.1,29.92,SW,216,4.0,23.0,37,0.00,,---,0.00,656.00,VWS V14.01,2013-07-18 21:50:00,
2013-07-18 16:55:00,92.1,62.1,29.92,SSW,192,22.0,25.0,37,0.00,,---,0.00,657.00,VWS V14.01,2013-07-18 21:55:00,
2013-07-18 17:00:00,91.8,61.8,29.91,SSW,198,7.0,7.0,37,0.00,,---,0.00,652.00,VWS V14.01,2013-07-18 22:00:00,
2013-07-18 17:05:00,92.1,62.1,29.91,SW,218,14.0,18.0,37,0.00,,---,0.00,610.00,VWS V14.01,2013-07-18 22:05:00,
2013-07-18 17:10:00,91.8,61.8,29.91,SSW,212,18.0,23.0,37,0.00,,---,0.00,598.00,VWS V14.01,2013-07-18 22:10:00,
2013-07-18 17:15:00,91.8,61.8,29.91,SW,226,13.0,23.0,37,0.00,,---,0.00,589.00,VWS V14.01,2013-07-18 22:15:00,
2013-07-18 17:20:00,91.6,60.9,29.90,SSW,198,6.0,23.0,36,0.00,,---,0.00,584.00,VWS V14.01,2013-07-18 22:20:00,
2013-07-18 17:25:00,91.4,61.5,29.90,SSW,202,10.0,24.0,37,0.00,,---,0.00,563.00,VWS V14.01,2013-07-18 22:25:00,
2013-07-18 17:30:00,91.4,60.7,29.90,SW,220,9.0,20.0,36,0.00,,---,0.00,545.00,VWS V14.01,2013-07-18 22:30:00,
2013-07-18 17:35:00,91.4,60.7,29.90,South,188,14.0,21.0,36,0.00,,---,0.00,534.00,VWS V14.01,2013-07-18 22:35:00,
2013-07-18 17:40:00,91.4,61.5,29.90,SSE,166,11.0,22.0,37,0.00,,---,0.00,520.00,VWS V14.01,2013-07-18 22:40:00,
2013-07-18 17:45:00,91.6,61.7,29.90,SSW,196,10.0,22.0,37,0.00,,---,0.00,462.00,VWS V14.01,2013-07-18 22:45:00,
2013-07-18 17:50:00,91.6,60.9,29.89,South,189,16.0,22.0,36,0.00,,---,0.00,503.00,VWS V14.01,2013-07-18 22:50:00,
2013-07-18 17:55:00,91.6,61.7,29.89,SW,215,9.0,22.0,37,0.00,,---,0.00,489.00,VWS V14.01,2013-07-18 22:55:00,
2013-07-18 18:00:00,91.8,61.1,29.89,SSE,165,8.0,14.0,36,0.00,,---,0.00,473.00,VWS V14.01,2013-07-18 23:00:00,
2013-07-18 18:05:00,91.8,61.1,29.89,South,190,10.0,20.0,36,0.00,,---,0.00,452.00,VWS V14.01,2013-07-18 23:05:00,
2013-07-18 18:10:00,91.8,64.1,29.89,SSW,210,17.0,20.0,40,0.00,,---,0.00,446.00,VWS V14.01,2013-07-18 23:10:00,
2013-07-18 18:15:00,91.4,61.5,29.89,SSE,165,8.0,24.0,37,0.00,,---,0.00,424.00,VWS V14.01,2013-07-18 23:15:00,
2013-07-18 18:20:00,91.4,61.5,29.88,SSW,200,14.0,24.0,37,0.00,,---,0.00,403.00,VWS V14.01,2013-07-18 23:20:00,
2013-07-18 18:25:00,91.4,61.5,29.88,SSE,161,25.0,25.0,37,0.00,,---,0.00,387.00,VWS V14.01,2013-07-18 23:25:00,
2013-07-18 18:30:00,91.4,60.7,29.88,South,183,14.0,14.0,36,0.00,,---,0.00,380.00,VWS V14.01,2013-07-18 23:30:00,
2013-07-18 18:35:00,91.4,61.5,29.88,SW,231,3.0,24.0,37,0.00,,---,0.00,360.00,VWS V14.01,2013-07-18 23:35:00,
2013-07-18 18:40:00,91.4,60.7,29.87,SSW,205,18.0,24.0,36,0.00,,---,0.00,348.00,VWS V14.01,2013-07-18 23:40:00,
2013-07-18 18:45:00,91.2,61.3,29.87,South,182,11.0,24.0,37,0.00,,---,0.00,334.00,VWS V14.01,2013-07-18 23:45:00,
2013-07-18 18:50:00,91.0,61.1,29.87,South,189,8.0,24.0,37,0.00,,---,0.00,315.00,VWS V14.01,2013-07-18 23:50:00,
2013-07-18 18:55:00,91.0,61.9,29.87,South,180,12.0,24.0,38,0.00,,---,0.00,302.00,VWS V14.01,2013-07-18 23:55:00,
2013-07-18 19:00:00,91.2,61.3,29.87,SW,236,11.0,12.0,37,0.00,,---,0.00,288.00,VWS V14.01,2013-07-19 00:00:00,
2013-07-18 19:05:00,91.4,62.2,29.87,SW,227,5.0,16.0,38,0.00,,---,0.00,274.00,VWS V14.01,2013-07-19 00:05:00,
2013-07-18 19:10:00,91.2,62.1,29.87,SSE,154,6.0,19.0,38,0.00,,---,0.00,257.00,VWS V14.01,2013-07-19 00:10:00,
2013-07-18 19:15:00,91.2,61.3,29.87,SSW,209,8.0,19.0,37,0.00,,---,0.00,243.00,VWS V14.01,2013-07-19 00:15:00,
2013-07-18 19:20:00,91.0,61.1,29.87,SSW,195,7.0,19.0,37,0.00,,---,0.00,232.00,VWS V14.01,2013-07-19 00:20:00,
2013-07-18 19:25:00,90.7,61.6,29.87,SW,223,12.0,21.0,38,0.00,,---,0.00,214.00,VWS V14.01,2013-07-19 00:25:00,
2013-07-18 19:30:00,90.7,61.6,29.87,SSE,165,12.0,15.0,38,0.00,,---,0.00,202.00,VWS V14.01,2013-07-19 00:30:00,
2013-07-18 19:35:00,90.5,61.5,29.87,South,183,18.0,23.0,38,0.00,,---,0.00,188.00,VWS V14.01,2013-07-19 00:35:00,
2013-07-18 19:40:00,90.5,61.5,29.87,South,186,5.0,23.0,38,0.00,,---,0.00,172.00,VWS V14.01,2013-07-19 00:40:00,
2013-07-18 19:45:00,90.3,61.3,29.87,SW,217,5.0,23.0,38,0.00,,---,0.00,158.00,VWS V14.01,2013-07-19 00:45:00,
2013-07-18 19:50:00,90.1,61.8,29.87,SSW,199,3.0,23.0,39,0.00,,---,0.00,144.00,VWS V14.01,2013-07-19 00:50:00,
2013-07-18 19:55:00,90.1,61.8,29.87,SSW,200,10.0,23.0,39,0.00,,---,0.00,132.00,VWS V14.01,2013-07-19 00:55:00,
2013-07-18 20:00:00,89.9,62.4,29.87,SSE,167,8.0,9.0,40,0.00,,---,0.00,121.00,VWS V14.01,2013-07-19 01:00:00,
2013-07-18 20:05:00,89.7,61.5,29.87,SSW,192,13.0,16.0,39,0.00,,---,0.00,104.00,VWS V14.01,2013-07-19 01:05:00,
2013-07-18 20:10:00,89.7,62.2,29.87,SSW,202,11.0,16.0,40,0.00,,---,0.00,84.00,VWS V14.01,2013-07-19 01:10:00,
2013-07-18 20:15:00,89.3,62.5,29.87,South,171,7.0,16.0,41,0.00,,---,0.00,70.00,VWS V14.01,2013-07-19 01:15:00,
2013-07-18 20:20:00,89.0,62.3,29.87,SSE,150,10.0,16.0,41,0.00,,---,0.00,58.00,VWS V14.01,2013-07-19 01:20:00,
2013-07-18 20:25:00,88.8,62.1,29.87,South,182,7.0,16.0,41,0.00,,---,0.00,44.00,VWS V14.01,2013-07-19 01:25:00,
2013-07-18 20:30:00,88.6,61.9,29.87,South,179,8.0,11.0,41,0.00,,---,0.00,33.00,VWS V14.01,2013-07-19 01:30:00,
2013-07-18 20:35:00,88.2,62.2,29.87,South,171,9.0,13.0,42,0.00,,---,0.00,25.00,VWS V14.01,2013-07-19 01:35:00,
2013-07-18 20:40:00,88.0,62.0,29.87,South,173,9.0,14.0,42,0.00,,---,0.00,18.00,VWS V14.01,2013-07-19 01:40:00,
2013-07-18 20:45:00,87.8,61.9,29.87,South,178,5.0,14.0,42,0.00,,---,0.00,11.00,VWS V14.01,2013-07-19 01:45:00,
2013-07-18 20:50:00,87.4,62.2,29.88,South,175,1.0,14.0,43,0.00,,---,0.00,7.00,VWS V14.01,2013-07-19 01:50:00,
2013-07-18 20:55:00,87.0,62.5,29.88,SSE,152,10.0,14.0,44,0.00,,---,0.00,0.00,VWS V14.01,2013-07-19 01:55:00,
2013-07-18 21:00:00,86.7,62.2,29.88,South,182,8.0,14.0,44,0.00,,---,0.00,0.00,VWS V14.01,2013-07-19 02:00:00,
2013-07-18 21:01:00,86.7,62.2,29.88,South,181,10.0,10.0,44,0.00,,---,0.00,0.00,VWS V14.01,2013-07-19 02:01:00,
2013-07-18 21:06:00,86.3,62.5,29.88,SSE,165,7.0,10.0,45,0.00,,---,0.00,0.00,VWS V14.01,2013-07-19 02:06:00,
2013-07-18 21:11:00,85.9,62.7,29.88,South,171,7.0,11.0,46,0.00,,---,0.00,0.00,VWS V14.01,2013-07-19 02:11:00,
2013-07-18 21:16:00,85.5,62.4,29.88,SSE,166,5.0,11.0,46,0.00,,---,0.00,0.00,VWS V14.01,2013-07-19 02:16:00,
2013-07-18 21:21:00,85.1,62.6,29.89,South,179,8.0,11.0,47,0.00,,---,0.00,0.00,VWS V14.01,2013-07-19 02:21:00,
2013-07-18 21:26:00,84.9,63.0,29.89,SSE,167,8.0,11.0,48,0.00,,---,0.00,0.00,VWS V14.01,2013-07-19 02:26:00,
2013-07-18 21:30:00,84.7,62.9,29.89,South,180,7.0,11.0,48,0.00,,---,0.00,0.00,VWS V14.01,2013-07-19 02:30:00,
2013-07-18 21:31:00,84.7,62.9,29.89,SSE,161,8.0,10.0,48,0.00,,---,0.00,0.00,VWS V14.01,2013-07-19 02:31:00,
2013-07-18 21:36:00,84.3,62.5,29.89,South,174,8.0,10.0,48,0.00,,---,0.00,0.00,VWS V14.01,2013-07-19 02:36:00,
2013-07-18 21:41:00,84.1,62.9,29.89,South,169,5.0,10.0,49,0.00,,---,0.00,0.00,VWS V14.01,2013-07-19 02:41:00,
2013-07-18 21:46:00,84.0,62.8,29.89,South,175,6.0,10.0,49,0.00,,---,0.00,0.00,VWS V14.01,2013-07-19 02:46:00,
2013-07-18 21:51:00,84.0,62.8,29.89,South,177,2.0,10.0,49,0.00,,---,0.00,0.00,VWS V14.01,2013-07-19 02:51:00,
2013-07-18 21:56:00,83.8,62.6,29.90,SSE,166,7.0,10.0,49,0.00,,---,0.00,0.00,VWS V14.01,2013-07-19 02:56:00,
2013-07-18 22:00:00,83.8,63.2,29.90,SSE,167,6.0,10.0,50,0.00,,---,0.00,0.00,VWS V14.01,2013-07-19 03:00:00,
2013-07-18 22:01:00,83.8,63.2,29.90,SSE,161,4.0,8.0,50,0.00,,---,0.00,0.00,VWS V14.01,2013-07-19 03:01:00,
2013-07-18 22:06:00,83.6,63.0,29.90,SSE,158,9.0,9.0,50,0.00,,---,0.00,0.00,VWS V14.01,2013-07-19 03:06:00,
2013-07-18 22:11:00,83.4,63.4,29.90,SSE,167,7.0,11.0,51,0.00,,---,0.00,0.00,VWS V14.01,2013-07-19 03:11:00,
2013-07-18 22:16:00,83.2,63.2,29.90,South,189,6.0,11.0,51,0.00,,---,0.00,0.00,VWS V14.01,2013-07-19 03:16:00,
2013-07-18 22:21:00,83.0,63.0,29.90,SSE,166,7.0,12.0,51,0.00,,---,0.00,0.00,VWS V14.01,2013-07-19 03:21:00,
2013-07-18 22:26:00,82.8,63.4,29.90,South,171,6.0,12.0,52,0.00,,---,0.00,0.00,VWS V14.01,2013-07-19 03:26:00,
2013-07-18 22:30:00,82.6,63.2,29.90,South,175,7.0,12.0,52,0.00,,---,0.00,0.00,VWS V14.01,2013-07-19 03:30:00,
2013-07-18 22:31:00,82.6,63.2,29.90,South,178,4.0,10.0,52,0.00,,---,0.00,0.00,VWS V14.01,2013-07-19 03:31:00,
2013-07-18 22:36:00,82.2,62.8,29.90,SSE,163,10.0,13.0,52,0.00,,---,0.00,0.00,VWS V14.01,2013-07-19 03:36:00,
2013-07-18 22:41:00,82.0,63.2,29.90,South,177,5.0,13.0,53,0.00,,---,0.00,0.00,VWS V14.01,2013-07-19 03:41:00,
2013-07-18 22:46:00,81.8,63.5,29.91,South,174,8.0,13.0,54,0.00,,---,0.00,0.00,VWS V14.01,2013-07-19 03:46:00,
2013-07-18 22:51:00,81.6,63.4,29.90,South,182,7.0,13.0,54,0.00,,---,0.00,0.00,VWS V14.01,2013-07-19 03:51:00,
2013-07-18 22:56:00,81.6,63.4,29.91,South,173,11.0,13.0,54,0.00,,---,0.00,0.00,VWS V14.01,2013-07-19 03:56:00,
2013-07-18 23:00:00,81.6,63.4,29.91,SSE,166,7.0,13.0,54,0.00,,---,0.00,0.00,VWS V14.01,2013-07-19 04:00:00,
2013-07-18 23:01:00,81.6,63.4,29.91,SSE,157,11.0,11.0,54,0.00,,---,0.00,0.00,VWS V14.01,2013-07-19 04:01:00,
2013-07-18 23:06:00,81.6,63.4,29.91,SSE,161,7.0,11.0,54,0.00,,---,0.00,0.00,VWS V14.01,2013-07-19 04:06:00,
2013-07-18 23:11:00,81.4,63.7,29.90,South,171,10.0,12.0,55,0.00,,---,0.00,0.00,VWS V14.01,2013-07-19 04:11:00,
2013-07-18 23:16:00,81.6,63.9,29.91,SSE,157,10.0,14.0,55,0.00,,---,0.00,0.00,VWS V14.01,2013-07-19 04:16:00,
2013-07-18 23:21:00,81.6,63.9,29.90,South,184,10.0,14.0,55,0.00,,---,0.00,0.00,VWS V14.01,2013-07-19 04:21:00,
2013-07-18 23:27:00,81.6,63.9,29.90,SSE,163,11.0,14.0,55,0.00,,---,0.00,0.00,VWS V14.01,2013-07-19 04:27:00,
2013-07-18 23:30:00,81.4,63.7,29.90,SSE,160,8.0,14.0,55,0.00,,---,0.00,0.00,VWS V14.01,2013-07-19 04:30:00,
2013-07-18 23:32:00,81.4,63.7,29.90,South,180,4.0,12.0,55,0.00,,---,0.00,0.00,VWS V14.01,2013-07-19 04:32:00,
2013-07-18 23:37:00,81.2,63.5,29.91,SSW,202,5.0,12.0,55,0.00,,---,0.00,0.00,VWS V14.01,2013-07-19 04:37:00,
2013-07-18 23:42:00,81.1,63.9,29.91,South,178,5.0,12.0,56,0.00,,---,0.00,0.00,VWS V14.01,2013-07-19 04:42:00,
2013-07-18 23:47:00,80.9,63.8,29.91,South,171,5.0,12.0,56,0.00,,---,0.00,0.00,VWS V14.01,2013-07-19 04:47:00,
2013-07-18 23:52:00,80.7,64.1,29.91,South,180,5.0,12.0,57,0.00,,---,0.00,0.00,VWS V14.01,2013-07-19 04:52:00,
2013-07-18 23:57:00,80.5,63.9,29.91,South,186,4.0,12.0,57,0.00,,---,0.00,0.00,VWS V14.01,2013-07-19 04:57:00,